Location: Colle San Luigi
(43.5500°N, 13.4167°E)
Time: 11:40:31
(UTC+00:00)

Abrixas rocket - Pass Details

Date: 09 April 2020
Orbit: 344 x 351 km, 48.4° (Epoch: 06 June)

Event Time Altitude Azimuth Distance (km) Brightness Sun altitude
Rises 19:57:03 0° 292° (WNW) 2,171 7.2 -22.8°
Reaches altitude 10° 19:59:06 10° 286° (WNW) 1,327 5.7 -23.1°
Enters shadow 20:00:36 25° 273° (W) 766 4.1 -23.3°
